SCOUT X-4 DEB, 2088

Orbit data source: Space-Track

SCOUT X-4 DEB, 2088 is space debris in LEO originally from a launch on Fri, 19 Nov 1965 UTC launched from the Wallops Island (WLPIS). Debris objects in space refer to the collection of defunct objects orbiting the Earth. Examples of debris include non-operational satellites, rocket bodies, and fragments generated from explosions, collisions, or faulty payload assembly.

Loading next visibility...
Identifier
2088, 1965-093D
Orbit
LEO
Country
Flag of USUS
Related business
Manufacturer
Unknown
Mission
Spacecraft
Bus & Motor
Unknown
Mass
Unknown
Launch date (UTC)
1965-11-19 (60 years ago)
Launch vehicle
Unknown
Launch site
Wallops Island (WLPIS)
Object type
Payload
Rocket body
Debris
Shape & HBR
Unknown shape, 0.1 m
Radar Cross Section
Small (<0.1 m²)

Expand to show TLE details & history
Last TLE update: 7 hours ago

TLE from 7 hours ago
0 SCOUT X-4 DEB
1  2088U 65093D   26118.84460432  .00001285  00000-0  27587-3 0  9998
2  2088  59.7163   3.8113 0080276  22.3748 338.0769 14.62212656146682
Epoch: 2026-04-28T20:16Z
TLE epoch observation values (Epoch: 2026-04-28T20:16:13.813Z)
Latitude
-0.00002°
Longitude
-157.06035°
Altitude
635.021 km
Speed
7.569 km/s
True Right ascension
00h 15m 14s
True Declination
0° 00' 00"
Sunlit
Object was in daylight at epoch
Visualization orbit readout
Latitude
Unknown
Longitude
Unknown
Altitude
Unknown
Speed
Unknown
Apparent Right ascension
Unknown
Apparent Declination
Unknown
Sunlit
N/A
Visualization observer readout
Local Sidereal Time
10:19:30
Azimuth
Unknown
Elevation
Unknown
Doppler factor
Unknown
Orbital elements
Apogee altitude
742.006 km
Perigee altitude
628.601 km
Semi-major axis
7,063.441 km
Eccentricity
0.00803
Inclination
59.7163°
RAAN
3.8113°
Arg. of periapsis
22.3748°
True anomaly
337.73022°
Mean anomaly
338.0769°
Eccentric anomaly
337.90389°
Mean motion
3.65611 °/min
Orbital period
98.47 mins
BSTAR
0.00027587
Loading maneuver chart data...
Computing Atmospheric mass density...
Loading historical data...
Loading historical data...
Loading historical data...
Loading historical data...
Loading historical data...
Loading historical data...
Loading historical data...
Other satellites on launch #93 in the year 1965 (1965-11-19 UTC)

Documentation

Showing up to 5 results
|